Weather History for Lancaster, CA

Change the Weather History Date:

Thursday, July 4, 2013

  Actual Average Record
Temperature  
Mean Temperature 90 °F 81 °F  
Max Temperature 106 °F 96 °F 111 °F (2007)
Min Temperature 74 °F 66 °F 52 °F (1966)
Degree Days  
Heating Degree Days 0    
Month to date heating degree days 0  
Since 1 June heating degree days 0  
Since 1 July heating degree days 0  
Cooling Degree Days 25    
Month to date cooling degree days 106  
Year to date cooling degree days 831  
Since 1 June cooling degree days 573  
Growing Degree Days 40 (Base 50)    
Moisture  
Dew Point 49 °F    
Average Humidity 25    
Maximum Humidity 36    
Minimum Humidity 14    
Precipitation  
Precipitation 0.00 in 0.00 in 0.22 in (2011)
Month to date precipitation 0.00 0.01  
Year to date precipitation 1.10 4.92  
Since 1 July precipitation 0.00 0.01  
Snow  
Snow 0.00 in - 0.00 in ()
Month to date snowfall 0.0  
Since 1 June snowfall 0.0  
Since 1 July snowfall 0.0  
Snow Depth 0.00 in    
Sea Level Pressure  
Sea Level Pressure 29.72 in    
Wind  
Wind Speed 13 mph (WSW)    
Max Wind Speed 31 mph    
Max Gust Speed 36 mph    
Visibility 10 miles    
Events      
T = Trace of Precipitation, MM = Missing Value Source: NWS Daily Summary

Daily Weather History Graph

Daily Weather History Graph

Search for Another Location

Airport:

Trip Planner

Search our weather history database for the weather conditions in past years. The results will help you decide how hot, cold, wet, or windy it might be!

Date:

Astronomy

Jul. 04, 2013 Rise Set
Actual Time 5:44 AM PDT 8:09 PM PDT
Civil Twilight 5:15 AM PDT 8:39 PM PDT
Nautical Twilight 4:39 AM PDT 9:15 PM PDT
Astronomical Twilight 3:59 AM PDT 9:54 PM PDT
Moon 3:01 AM PDT (7/4) 5:20 PM PDT (7/4)
Length of Visible Light 15h 23m
Length of Day
14h 24m
Waning Crescent, 11% of the Moon is Illuminated
Jul 4
Waning Crescent
Jul 8
New
Jul 15
First Quarter
Jul 22
Full
Jul 29
Last Quarter

Hourly Weather History & Observations

Time (PDT) Temp. Heat Index Dew Point Humidity Pressure Visibility Wind Dir Wind Speed Gust Speed Precip Events Conditions
12:56 AM 84.0 °F - 48.0 °F 28% 29.76 in 10.0 mi WSW 13.8 mph - N/A   Clear
1:56 AM 84.0 °F - 48.0 °F 28% 29.75 in 10.0 mi WSW 10.4 mph - N/A   Clear
2:56 AM 81.0 °F - 48.9 °F 33% 29.73 in 10.0 mi WSW 8.1 mph - N/A   Clear
3:56 AM 80.1 °F - 48.9 °F 34% 29.73 in 10.0 mi SW 3.5 mph - N/A   Clear
4:56 AM 77.0 °F - 48.0 °F 36% 29.73 in 10.0 mi West 4.6 mph - N/A   Clear
5:56 AM 77.0 °F - 48.0 °F 36% 29.73 in 10.0 mi West 3.5 mph - N/A   Clear
6:56 AM 75.9 °F - 48.0 °F 37% 29.76 in 10.0 mi Calm Calm - N/A   Clear
7:56 AM 82.9 °F - 48.9 °F 31% 29.76 in 10.0 mi Calm Calm - N/A   Clear
8:56 AM 93.0 °F - 48.9 °F 22% 29.75 in 10.0 mi Calm Calm - N/A   Clear
9:56 AM 98.1 °F - 48.0 °F 18% 29.74 in 10.0 mi SW 8.1 mph - N/A   Clear
10:56 AM 102.0 °F - 48.9 °F 17% 29.73 in 10.0 mi West 9.2 mph - N/A   Clear
11:56 AM 104.0 °F - 48.0 °F 15% 29.72 in 10.0 mi West 5.8 mph - N/A   Clear
12:56 PM 105.1 °F - 46.9 °F 14% 29.71 in 10.0 mi SW 15.0 mph 23.0 mph N/A   Clear
1:56 PM 104.0 °F - 46.9 °F 15% 29.70 in 10.0 mi SW 25.3 mph 32.2 mph N/A   Clear
2:56 PM 104.0 °F - 48.0 °F 15% 29.69 in 10.0 mi SW 23.0 mph 31.1 mph N/A   Clear
3:56 PM 100.9 °F - 48.0 °F 17% 29.68 in 10.0 mi SW 26.5 mph 31.1 mph N/A   Clear
4:56 PM 99.0 °F - 48.9 °F 18% 29.68 in 10.0 mi WSW 28.8 mph 35.7 mph N/A   Clear
5:56 PM 96.1 °F - 51.1 °F 22% 29.68 in 10.0 mi SW 21.9 mph 33.4 mph N/A   Clear
6:56 PM 91.9 °F 89.5 °F 53.1 °F 27% 29.69 in 10.0 mi SW 21.9 mph 29.9 mph N/A   Clear
7:56 PM 87.1 °F 84.9 °F 53.1 °F 31% 29.70 in 10.0 mi SW 19.6 mph 29.9 mph N/A   Clear
8:56 PM 84.9 °F - 50.0 °F 30% 29.71 in 10.0 mi WSW 20.7 mph - N/A   Clear
9:56 PM 82.9 °F - 50.0 °F 32% 29.73 in 10.0 mi WSW 17.3 mph - N/A   Clear
10:56 PM 82.0 °F - 48.9 °F 31% 29.73 in 10.0 mi WSW 18.4 mph 26.5 mph N/A   Clear
11:56 PM 82.0 °F - 48.9 °F 31% 29.73 in 10.0 mi SW 15.0 mph 24.2 mph N/A   Clear